STARLINK-36439, 67624

Orbit data source: Space-Track

STARLINK-36439, 67624 is a payload satellite owned by SpaceX/Seattle (US) in LEO that was launched on Fri, 30 Jan 2026 UTC via an FALCON 9 launch vehicle from the Air Force Eastern Test Range (AFETR). Payload-class satellites include a variety of spacecraft equipped with specific instruments for various scientific and technological missions. These include communications satellites like Starlink; space stations such as the ISS; scientific satellites like the Hubble; Earth observation satellites from companies like Planet Labs, Umbra, and HawkEye 360; GPS; miniature CubeSats for education and research; and military/defense satellites.

Loading next visibility...
Identifier
67624, 2026-020H
Orbit
LEO
Country
Flag of USUS
Related business
Manufacturer
SpaceX/Seattle
Mission
Operational spacecraft
Bus & Motor
STARLINK V2MO, Unknown motor
Mass
575 kg wet, ~530 kg dry
Launch date (UTC)
2026-01-30 (2 months ago)
Launch vehicle
FALCON 9
Launch site
Air Force Eastern Test Range (AFETR)
Object type
Payload
Rocket body
Debris
Shape & HBR
Unknown shape, 17.7 m
Radar Cross Section
RCS unknown

Expand to show TLE details & history
Last TLE update: 11 hours ago

TLE from 11 hours ago
0 STARLINK-36439
1 67624U 26020H   26104.58290361  .00007952  00000-0  29806-3 0  9993
2 67624  42.9984 297.0234 0000771 244.9566 115.1206 15.27591816 11600
Epoch: 2026-04-14T13:59Z
TLE epoch observation values (Epoch: 2026-04-14T13:59:22.871Z)
Latitude
-0.00001°
Longitude
-115.57898°
Altitude
483.014 km
Speed
7.626 km/s
True Right ascension
19h 48m 05s
True Declination
0° 00' 00"
Sunlit
Object was in daylight at epoch
Visualization orbit readout
Latitude
Unknown
Longitude
Unknown
Altitude
Unknown
Speed
Unknown
Apparent Right ascension
Unknown
Apparent Declination
Unknown
Sunlit
N/A
Visualization observer readout
Local Sidereal Time
07:06:28
Azimuth
Unknown
Elevation
Unknown
Doppler factor
Unknown
Orbital elements
Apogee altitude
485.488 km
Perigee altitude
484.43 km
Semi-major axis
6,863.096 km
Eccentricity
0.00008
Inclination
42.9984°
RAAN
297.0234°
Arg. of periapsis
244.9566°
True anomaly
115.1286°
Mean anomaly
115.1206°
Eccentric anomaly
115.1246°
Mean motion
3.81736 °/min
Orbital period
94.31 mins
BSTAR
0.00029806
Loading maneuver chart data...
Computing Atmospheric mass density...
Loading historical data...
Loading historical data...
Loading historical data...
Loading historical data...
Loading historical data...
Loading historical data...
Loading historical data...

Documentation

Showing up to 5 results
|